Theta_e
337 340 342 343 346 348 350 351 351 349 348 349 349 350 352 352 351 351 350 348 349 351 348 351 350 352 349 349 347 344 339 335
336 338 341 342 344 345 349 351 351 349 349 350 348 350 351 350 352 352 350 347 345 346 346 345 345 346 345 342 340 339 336 334
325 336 340 342 344 346 347 350 350 350 347 350 348 349 350 350 350 350 350 347 345 345 345 344 344 344 343 341 339 338 335 334
306 311 324 327 344 346 346 347 349 348 348 348 348 349 350 350 348 350 349 349 345 344 344 344 343 344 343 342 339 337 335 333
306 307 308 311 329 346 345 345 346 345 346 347 347 348 349 350 350 350 350 349 345 344 343 343 343 343 343 340 339 337 333 332
306 309 310 312 321 335 342 347 342 339 339 345 347 348 348 349 349 349 350 350 348 344 344 343 345 344 341 340 339 335 333 332
316 309 316 320 329 336 340 341 339 338 340 342 345 346 346 348 347 348 349 349 350 347 345 345 344 343 341 340 339 337 338 334
312 308 316 320 324 330 331 332 334 336 337 338 344 346 345 342 342 343 344 346 349 347 347 346 345 342 340 339 338 338 336 337
309 310 315 317 319 323 324 323 323 326 326 330 329 329 334 339 343 345 344 343 344 343 344 345 344 341 341 341 339 336 336 334
310 311 314 316 315 319 321 324 325 324 324 326 323 324 325 331 331 336 342 342 342 341 340 340 341 342 342 341 339 336 335 337
309 311 312 314 317 319 318 317 318 318 319 317 317 318 318 318 320 324 328 332 334 337 338 338 338 339 339 340 340 339 335 339
307 309 311 312 312 313 314 316 317 317 317 315 315 312 312 314 318 321 323 325 326 329 332 334 336 338 339 338 340 340 338 332
307 309 311 313 313 312 314 315 316 317 316 315 315 314 314 315 317 318 317 319 322 325 327 328 329 333 336 338 338 338 339 336
306 307 310 311 312 310 310 311 309 311 313 313 312 311 310 311 312 312 314 316 318 322 325 326 327 329 332 334 336 337 336 336
303 304 305 306 307 304 307 305 304 305 306 307 308 308 309 310 310 311 311 313 316 319 321 322 323 326 329 331 333 334 334 332
299 300 300 299 302 303 303 303 303 303 304 304 305 305 305 306 308 308 310 313 316 319 320 322 323 325 326 328 329 331 332 332
298 298 299 300 301 302 302 302 302 303 304 303 303 304 304 304 305 307 308 311 312 314 316 317 320 321 322 322 324 326 328 330
298 299 300 301 301 301 302 302 302 303 302 302 303 302 303 303 304 304 305 306 309 310 311 312 315 317 318 320 321 324 325 327
296 298 300 300 300 300 301 301 301 301 301 301 301 301 301 302 302 302 303 304 306 307 307 308 309 311 314 317 319 321 322 323
296 297 298 298 298 299 300 300 300 300 300 300 300 300 301 300 300 301 303 303 304 304 305 306 307 308 310 313 316 318 319 320
Wind_Speed
6 7 10 15 10 8 10 10 8 8 5 3 2 2 2 2 3 3 2 2 2 3 2 3 3 7 3 4 3 3 4 3
8 8 7 7 9 10 8 8 8 5 3 4 4 4 4 4 5 5 4 3 4 4 3 3 3 2 2 2 2 3 3 4
7 7 5 5 8 11 12 11 10 8 5 4 4 4 5 6 6 8 7 6 6 6 5 4 5 4 5 5 5 5 5 5
4 7 10 10 11 11 11 13 10 8 7 7 5 3 4 4 4 5 8 5 4 5 4 4 4 4 4 5 6 6 7 6
10 8 9 10 10 8 11 9 9 9 8 5 5 4 4 5 5 5 7 6 5 4 2 4 4 3 4 4 4 4 5 5
10 9 7 6 5 8 6 7 6 7 7 5 5 6 6 6 6 6 8 8 7 5 5 5 4 4 4 5 6 5 5 5
18 5 1 4 3 6 7 7 9 9 7 5 5 5 4 4 4 5 7 8 9 8 6 6 6 5 6 6 7 5 8 6
16 6 5 2 5 7 7 5 7 7 5 3 2 2 2 3 3 3 4 4 6 5 5 6 6 5 6 5 9 6 8 9
5 7 7 7 5 7 7 9 7 7 3 4 4 3 2 1 3 5 5 5 5 4 4 4 4 6 8 8 7 9 8 6
5 6 6 4 5 5 7 7 7 5 4 3 4 3 2 2 1 1 2 2 2 3 4 4 5 5 7 8 7 7 7 6
7 7 5 6 6 7 7 8 8 7 7 4 3 3 3 3 2 1 2 2 3 4 5 5 5 5 6 7 7 10 10 7
6 8 7 7 6 6 8 7 7 5 6 4 4 4 3 3 3 2 4 4 5 5 5 5 5 5 7 8 7 9 9 12
8 8 6 5 7 7 6 5 4 4 5 6 6 4 4 3 3 4 4 5 6 6 6 6 6 5 7 8 9 9 9 11
7 5 7 6 4 3 3 6 7 7 6 5 5 6 6 4 5 4 6 6 7 7 6 6 7 6 7 8 9 10 10 10
7 8 3 5 6 5 5 7 7 7 8 7 6 6 6 4 4 3 4 3 4 7 6 8 7 8 8 8 8 9 11 10
6 4 5 6 7 7 8 7 6 7 6 5 3 3 2 2 2 3 3 3 4 6 8 8 10 11 10 10 7 8 10 10
6 6 7 7 7 7 7 5 3 3 4 4 4 3 3 5 6 5 4 6 6 7 7 9 9 10 11 11 8 10 9 10
6 6 7 5 5 3 3 3 3 3 5 5 5 6 5 6 6 8 7 9 9 9 11 10 10 10 10 10 10 11 11 9
6 5 4 4 3 4 4 5 5 5 6 6 7 7 6 6 6 7 7 8 8 9 11 12 13 12 11 11 11 12 13 10
6 4 2 3 4 4 4 4 5 6 6 7 7 6 8 9 8 8 6 7 7 9 11 11 12 13 13 14 13 11 13 12
Wind_Direction
181 197 192 189 188 187 189 189 186 173 178 144 135 122 116 132 170 172 163 156 182 196 187 194 201 234 243 257 267 266 276 293
203 194 195 180 174 192 185 189 188 185 154 159 143 157 169 189 193 175 169 179 181 195 196 197 198 179 244 270 276 274 280 275
234 217 204 193 194 189 192 185 187 182 163 148 157 166 176 203 201 206 213 212 211 194 195 192 199 198 207 199 210 237 242 251
216 197 212 199 205 203 191 194 182 172 179 162 163 153 171 176 187 193 218 216 229 227 216 219 236 220 220 221 221 231 238 235
259 222 208 200 215 203 196 184 171 171 177 149 140 145 175 192 207 195 207 213 209 216 195 235 228 225 234 238 257 247 260 251
272 264 229 229 187 189 148 165 143 135 152 148 162 186 189 194 193 198 204 213 207 202 203 223 216 214 219 228 233 239 248 242
279 245 312 331 130 143 143 147 158 156 157 162 178 190 183 196 192 197 195 204 204 208 217 223 207 216 223 229 241 223 262 253
241 185 157 174 95 113 124 125 146 151 145 152 140 150 187 182 208 224 225 225 214 207 227 227 219 217 232 217 234 213 237 253
180 185 168 141 145 138 139 132 135 134 123 108 93 108 78 77 207 223 213 216 219 219 238 250 212 225 239 239 235 236 244 244
156 164 178 184 144 124 115 100 106 94 99 120 128 163 175 140 121 80 144 168 220 227 231 240 239 246 251 248 232 246 242 221
155 157 134 106 105 112 111 114 116 112 113 112 84 54 38 25 349 317 186 187 221 228 238 235 242 232 254 256 242 240 262 251
133 134 115 114 115 114 114 120 124 131 141 105 117 151 172 222 205 238 271 268 253 235 238 242 239 236 244 253 253 250 253 268
110 115 119 140 141 149 142 133 152 162 164 170 161 174 203 197 218 249 262 273 252 256 238 237 237 232 243 248 252 248 249 261
120 116 137 158 145 123 68 50 30 41 47 32 20 357 359 343 341 331 325 321 313 286 257 243 243 238 235 242 246 247 250 251
147 159 147 54 58 57 70 80 48 45 57 51 45 31 19 353 333 307 303 282 281 278 282 281 273 259 247 239 239 246 250 251
67 87 89 66 66 71 77 71 61 42 46 39 30 38 354 297 270 279 276 268 278 283 283 279 277 275 272 266 253 244 247 251
99 77 78 79 69 64 74 73 61 32 0 336 326 309 294 285 281 260 265 274 280 281 282 278 280 280 276 272 263 253 245 248
86 92 104 101 100 102 67 36 11 335 324 312 303 304 281 272 272 275 270 277 276 276 278 276 275 275 275 274 268 258 249 247
76 71 67 68 39 18 11 4 340 323 305 291 285 291 281 276 256 250 252 261 263 275 282 281 279 274 271 270 265 267 260 254
123 107 68 18 3 352 338 315 306 285 284 288 289 281 293 296 284 288 275 265 267 269 272 280 286 285 279 272 268 270 271 262